Wind_Speed
4 2 2 2 0 0 1 3 5 7 8 9 10 10 11 11 11 9 8 7 7 7 7 6 6 5 6 6 6 6 6 6 6 6 6 5 6 6 6 7 7 8 8 8 8 7 7 7 7
6 5 5 5 4 4 2 2 4 6 7 8 10 12 12 12 12 11 9 8 7 7 6 5 5 5 5 6 6 6 6 7 7 8 7 7 8 8 8 8 9 10 10 10 11 10 9 7 7
9 8 8 8 9 8 7 5 3 4 5 8 10 12 13 14 13 11 10 8 7 6 6 5 5 5 5 6 6 7 8 8 9 9 9 9 10 10 10 11 12 12 12 12 13 13 12 10 9
10 10 11 11 12 11 9 8 6 4 5 8 10 12 14 15 15 12 10 8 7 7 6 6 7 7 7 7 8 9 10 10 10 10 11 11 12 13 13 13 14 14 14 14 14 15 15 14 12
12 13 13 15 15 13 11 10 8 6 6 7 9 12 15 15 15 14 12 9 9 9 9 8 8 8 8 9 10 11 11 11 12 12 13 14 14 14 14 15 15 15 15 16 16 17 17 17 15
14 15 16 17 17 15 14 12 11 8 7 8 10 13 15 16 16 14 13 11 11 11 11 11 10 10 10 11 12 13 13 13 13 14 14 14 14 15 15 15 16 16 17 17 18 19 19 19 19
16 17 18 20 20 18 16 14 13 10 9 11 12 14 16 18 16 15 14 13 13 13 13 12 12 12 13 13 14 14 14 15 15 15 15 15 15 16 16 17 17 18 18 18 19 20 21 21 21
18 18 21 23 23 22 19 17 16 13 11 12 14 16 18 19 18 17 16 15 15 16 16 15 15 15 15 16 16 16 16 17 17 17 17 17 17 18 18 19 19 20 20 20 21 22 22 23 23
20 20 23 26 26 24 22 20 19 17 14 13 16 19 20 20 19 19 18 17 18 19 19 18 18 18 19 19 18 19 19 20 19 19 19 20 20 21 21 22 22 22 22 22 23 24 24 24 25
22 21 25 29 29 27 24 23 22 19 17 17 19 22 22 21 21 20 20 20 21 21 21 21 21 20 21 21 22 22 23 22 22 21 21 22 22 23 24 24 25 24 24 24 24 24 25 25 26
24 24 29 32 32 30 27 26 25 24 22 22 22 23 23 23 23 22 21 20 21 21 22 22 23 23 24 24 25 25 25 25 24 24 23 24 25 25 26 26 27 27 26 26 26 27 26 27 27
27 27 31 34 34 32 30 29 28 27 26 26 26 25 25 25 24 23 22 20 20 20 22 23 24 24 24 26 26 27 27 26 26 25 25 26 27 27 27 27 28 28 28 28 28 28 28 28 27
27 27 30 34 35 34 32 31 31 29 29 29 28 27 27 26 25 22 21 20 19 20 21 22 23 24 25 26 26 27 27 27 26 26 27 28 29 29 29 29 29 29 30 30 30 29 29 28 28
25 26 29 32 34 34 34 32 32 31 31 31 29 29 28 27 25 23 21 19 19 19 20 21 22 23 24 25 25 25 26 27 28 28 29 30 30 31 31 31 31 31 31 31 30 30 29 29 29
22 23 26 29 31 33 33 32 32 31 31 31 30 30 29 27 24 23 21 18 18 18 19 20 21 22 23 24 25 26 27 27 28 29 30 31 31 32 32 32 32 32 32 31 31 31 30 30 30
18 19 22 24 28 30 31 30 30 30 31 31 30 30 28 26 24 22 20 18 18 18 19 20 22 23 24 25 26 27 28 29 30 30 31 31 32 32 33 33 32 32 32 32 32 31 31 30 30
14 16 18 20 22 25 27 28 28 29 30 30 29 28 27 26 23 21 19 17 17 18 19 20 22 23 24 25 26 27 28 29 30 31 31 32 33 33 33 33 33 33 33 33 32 32 31 31 30
12 14 15 16 18 20 22 24 26 27 27 27 27 26 25 23 21 19 17 17 17 18 19 20 22 23 25 26 27 28 29 30 30 31 32 33 33 33 33 33 33 33 33 33 33 33 33 32 31
8 10 11 12 14 16 17 18 20 22 23 23 24 24 22 20 18 16 15 16 17 18 20 21 23 24 25 27 28 29 30 31 31 32 32 32 33 33 33 33 33 34 34 34 34 33 33 32 32
5 6 7 7 9 11 12 14 16 17 18 19 18 16 16 15 14 13 14 16 17 19 20 22 23 25 26 28 29 30 31 32 33 33 33 33 32 32 32 33 33 33 34 34 34 34 33 33 33
3 2 3 3 4 5 6 8 10 11 12 12 11 10 10 9 9 11 13 15 17 19 20 22 23 25 27 29 30 31 32 33 33 34 34 33 32 32 32 32 32 32 32 33 33 34 34 35 34
2 2 1 1 2 3 4 4 4 4 3 4 4 4 5 6 8 11 13 15 17 18 20 22 24 26 27 29 30 31 31 32 33 33 33 33 32 31 31 31 31 31 31 32 32 33 33 34 35
3 3 2 2 2 2 3 4 4 2 0 1 2 3 4 6 8 10 13 15 17 19 21 22 24 25 27 28 28 29 30 30 31 31 31 31 31 31 30 30 31 31 31 32 32 33 33 33 34
4 3 3 2 2 1 3 4 5 4 2 1 2 3 5 7 9 11 14 16 17 19 20 21 23 24 25 26 27 28 28 28 29 29 30 30 31 31 31 31 31 32 32 33 33 34 34 34 34
4 4 3 3 1 1 1 3 4 4 3 3 4 5 7 9 10 12 14 15 16 18 19 21 22 24 25 26 27 27 27 28 29 29 30 30 31 32 33 33 33 34 34 35 35 35 36 36 36
5 5 5 4 3 2 1 2 3 4 5 6 6 7 8 9 11 12 13 15 16 18 20 21 23 25 26 27 27 27 28 29 29 30 30 31 32 33 34 35 36 37 37 37 37 37 37 38 38
5 5 5 5 4 2 1 2 4 6 7 7 8 8 9 10 11 12 14 15 17 19 21 23 24 26 27 28 28 28 29 29 30 31 31 32 34 35 36 37 37 38 38 38 38 38 38 39 39
5 6 6 5 5 4 2 3 5 7 8 8 9 10 11 11 12 13 14 16 19 21 23 25 26 27 29 29 30 30 30 31 32 33 34 35 37 38 38 39 39 39 38 38 38 38 38 38 39
7 8 8 7 6 6 4 5 6 7 8 10 11 11 12 12 13 14 16 19 21 24 26 27 28 29 30 31 31 32 33 34 35 36 37 38 39 40 40 39 39 39 38 38 37 37 37 37 37
8 9 9 8 8 7 7 7 7 8 10 11 12 13 13 14 15 17 19 22 24 26 27 29 30 31 32 33 33 34 35 36 37 38 39 41 41 41 41 40 39 39 38 37 36 36 36 36 37
Wind_Direction
332 307 287 283 274 114 59 52 49 42 30 19 14 8 4 357 353 351 346 343 346 336 328 327 340 349 353 355 358 1 358 355 352 348 344 342 339 337 334 332 330 328 325 324 327 334 342 351 0
317 298 283 272 263 267 278 335 28 29 25 12 11 8 3 355 349 345 343 339 333 323 323 328 338 345 346 346 347 347 342 338 334 331 328 326 323 321 320 319 317 315 313 310 307 307 311 318 326
312 295 278 272 264 267 278 295 320 359 11 7 6 5 1 355 351 349 345 339 329 319 320 326 330 335 333 330 328 327 325 323 322 320 319 317 315 314 312 310 308 307 305 302 299 297 296 296 297
301 288 273 264 261 267 271 281 285 299 332 350 358 359 354 350 348 346 339 333 325 319 316 317 318 319 317 315 314 314 314 313 313 312 312 312 312 311 310 309 306 303 300 297 294 293 289 285 284
291 279 267 261 261 261 261 269 277 277 304 324 340 344 344 345 343 341 333 323 314 307 302 303 305 304 302 304 307 308 307 308 308 308 309 309 308 307 308 308 307 303 300 296 293 290 287 282 276
283 274 260 252 256 258 256 261 262 267 283 308 319 327 328 332 335 334 326 314 308 301 295 294 293 295 297 299 301 302 303 306 308 308 308 309 309 308 308 308 308 306 302 298 294 290 287 283 277
275 266 253 248 249 251 251 256 252 252 276 295 307 312 315 319 323 325 321 309 301 297 292 290 289 289 294 297 298 299 301 303 304 304 305 307 307 306 306 306 306 305 302 298 295 292 288 283 279
270 258 245 241 243 246 249 247 247 255 271 285 294 299 304 309 314 316 313 301 296 293 291 287 286 287 289 290 292 294 295 296 298 298 300 302 303 304 303 303 302 301 300 297 295 291 290 286 282
263 249 237 236 239 243 244 243 248 253 264 276 285 291 297 303 307 308 304 294 290 288 285 280 279 281 284 285 286 287 288 289 290 292 295 297 298 299 300 300 299 298 296 294 294 291 289 288 285
255 242 229 234 238 239 242 244 249 256 263 273 282 289 296 299 300 301 297 290 286 283 280 278 277 278 282 283 284 285 285 284 284 287 290 292 294 295 296 296 296 294 294 292 291 290 289 289 288
248 234 225 230 236 239 241 244 251 258 263 272 282 290 294 297 298 297 294 288 286 283 280 279 276 278 280 282 284 284 284 283 280 284 288 290 291 292 292 293 293 293 292 291 289 289 288 287 286
245 234 227 229 236 239 242 246 251 258 265 274 282 290 293 297 296 295 293 288 285 282 283 284 282 282 283 284 286 286 286 288 288 289 290 289 289 290 291 291 291 291 290 290 290 287 285 284 285
243 235 229 229 235 239 244 248 254 261 268 276 284 290 294 296 296 292 291 289 287 287 286 285 288 287 288 289 291 290 292 293 292 293 292 291 291 291 291 290 289 289 288 288 287 284 282 281 281
243 237 231 229 233 239 244 250 257 265 272 279 285 291 296 295 297 293 290 289 288 288 288 289 289 289 290 291 293 292 293 293 294 293 291 290 289 289 289 289 288 287 287 286 284 282 280 280 279
242 238 234 232 234 240 246 253 261 269 275 281 287 291 294 295 293 292 289 291 289 288 288 289 289 290 291 292 294 294 294 294 294 294 293 292 290 289 289 289 288 286 286 285 283 280 279 278 276
244 241 238 238 240 243 249 255 263 271 278 283 287 290 291 292 290 289 289 289 289 288 289 291 293 294 295 296 297 298 298 297 297 297 296 294 293 291 290 289 287 286 284 283 281 279 278 276 274
248 246 246 246 247 249 254 259 266 274 279 282 283 287 288 288 288 290 290 290 291 292 294 297 298 299 300 301 302 302 302 302 302 300 299 297 296 294 292 290 288 286 284 282 280 278 277 275 272
246 249 253 255 257 258 263 267 270 274 277 279 280 281 282 283 286 290 291 293 296 299 302 304 305 306 307 307 307 307 307 306 304 303 301 300 298 297 295 293 290 287 285 283 281 279 276 274 271
252 252 256 262 263 263 268 272 272 272 273 274 275 275 274 278 283 288 293 298 301 304 307 309 310 310 310 311 311 310 310 309 308 306 304 302 300 298 296 294 291 288 286 284 281 279 276 274 271
274 273 268 264 262 264 268 274 277 274 270 271 274 269 271 277 283 291 299 304 308 310 312 312 313 314 314 314 313 313 311 310 308 307 305 303 301 300 298 295 292 289 286 284 282 280 277 274 271
285 283 260 256 259 272 276 286 285 277 268 269 266 260 267 275 286 298 305 309 312 314 315 315 315 315 315 314 312 311 309 308 307 306 304 303 301 300 298 296 294 291 288 285 282 280 277 275 272
343 351 325 303 284 303 313 318 313 283 262 263 256 253 272 282 296 305 309 311 313 315 315 316 316 315 313 311 309 308 307 306 305 305 304 303 302 301 299 297 295 293 290 287 283 280 277 274 271
354 346 343 342 346 6 26 19 18 25 144 264 279 287 295 299 307 311 312 313 315 315 315 314 313 312 311 310 309 308 307 307 306 306 306 305 304 303 301 300 297 294 291 288 284 281 277 273 270
332 330 317 330 344 56 37 29 43 55 58 13 318 311 308 311 314 314 314 314 313 313 313 313 313 313 314 315 315 315 314 313 313 313 311 310 309 307 305 303 300 296 293 289 285 281 277 273 269
339 333 330 322 304 339 12 20 28 20 9 343 325 313 308 311 312 312 310 311 313 315 316 318 320 322 323 323 323 322 322 322 321 320 318 316 314 311 309 306 302 299 295 290 286 281 276 272 268
351 354 350 339 329 310 325 355 337 325 320 312 310 308 307 308 309 309 311 315 320 324 327 328 329 330 331 330 329 328 328 327 326 325 323 321 318 315 311 308 304 300 296 291 287 282 276 271 267
347 354 351 343 341 334 325 314 298 291 293 300 305 307 308 309 311 314 320 325 329 333 335 335 335 335 336 335 333 332 331 330 329 328 326 324 322 318 314 310 306 301 297 292 288 283 277 272 267
325 333 338 339 337 332 303 280 279 278 289 301 306 307 308 312 319 325 330 333 337 340 341 340 339 338 337 337 336 334 333 332 331 330 329 327 324 321 317 313 308 303 298 293 288 283 278 273 268
308 317 322 324 318 314 304 289 285 290 299 305 309 309 310 318 326 332 336 339 341 343 343 342 340 338 337 336 335 335 334 334 332 331 329 328 325 322 318 315 310 305 300 295 290 285 280 275 269
290 300 306 309 310 306 309 310 301 303 306 309 312 315 319 326 332 337 339 341 342 342 341 340 339 337 336 335 335 334 334 333 332 331 329 328 326 323 320 316 312 307 302 297 292 286 281 277 272
Height
5915 5915 5915 5915 5916 5915 5913 5913 5913 5912 5912 5912 5912 5911 5911 5912 5912 5913 5911 5908 5908 5907 5907 5906 5905 5905 5904 5904 5903 5903 5903 5903 5903 5903 5903 5903 5903 5902 5902 5902 5902 5901 5901 5901 5901 5901 5900 5900 5900
5915 5915 5915 5915 5914 5913 5914 5913 5913 5913 5912 5912 5911 5911 5911 5911 5911 5910 5909 5908 5908 5907 5907 5906 5905 5904 5904 5903 5903 5902 5902 5902 5902 5902 5902 5901 5901 5901 5901 5901 5900 5900 5900 5900 5899 5899 5899 5899 5898
5914 5914 5914 5914 5912 5912 5912 5913 5913 5912 5912 5911 5911 5911 5912 5911 5910 5910 5909 5908 5908 5907 5906 5906 5905 5904 5903 5903 5902 5902 5901 5901 5901 5901 5900 5900 5900 5899 5899 5899 5898 5898 5898 5897 5897 5897 5896 5896 5896
5914 5913 5913 5912 5910 5910 5910 5911 5912 5911 5911 5911 5911 5911 5911 5911 5910 5910 5909 5908 5908 5907 5906 5905 5904 5903 5903 5902 5901 5901 5900 5900 5900 5899 5899 5898 5898 5897 5897 5896 5896 5895 5895 5894 5894 5894 5894 5894 5894
5912 5911 5910 5908 5907 5908 5908 5909 5909 5910 5910 5909 5909 5910 5910 5910 5910 5909 5908 5908 5907 5906 5905 5904 5903 5902 5901 5901 5900 5900 5899 5898 5898 5897 5897 5896 5896 5895 5894 5894 5893 5892 5892 5891 5891 5890 5890 5890 5891
5910 5909 5908 5905 5904 5905 5906 5906 5907 5907 5907 5907 5908 5908 5908 5909 5908 5908 5907 5907 5906 5905 5904 5903 5902 5901 5900 5899 5898 5898 5897 5896 5896 5895 5895 5894 5893 5892 5892 5891 5890 5889 5889 5888 5887 5887 5886 5886 5887
5908 5906 5904 5902 5901 5902 5903 5904 5904 5904 5904 5905 5905 5906 5906 5907 5907 5906 5905 5905 5904 5903 5902 5901 5899 5899 5898 5897 5897 5896 5895 5894 5893 5892 5892 5891 5890 5890 5889 5888 5887 5886 5885 5885 5884 5883 5882 5882 5882
5903 5903 5900 5898 5897 5898 5900 5900 5901 5901 5902 5903 5903 5903 5904 5904 5904 5903 5902 5902 5901 5900 5899 5898 5897 5896 5895 5894 5894 5893 5892 5891 5890 5889 5888 5887 5887 5886 5885 5885 5884 5883 5882 5881 5880 5879 5878 5877 5877
5898 5900 5896 5894 5894 5894 5896 5897 5897 5897 5899 5899 5900 5901 5901 5901 5901 5900 5899 5898 5898 5897 5895 5894 5893 5892 5892 5891 5890 5889 5888 5886 5885 5885 5884 5883 5883 5882 5881 5880 5879 5878 5877 5876 5876 5875 5874 5873 5872
5893 5894 5893 5890 5889 5890 5892 5893 5894 5895 5896 5896 5897 5897 5897 5897 5897 5896 5895 5894 5893 5892 5891 5890 5889 5888 5887 5886 5885 5884 5883 5881 5880 5880 5879 5878 5878 5877 5876 5875 5874 5873 5872 5872 5871 5870 5869 5868 5867
5886 5887 5886 5885 5885 5887 5888 5890 5891 5892 5893 5893 5893 5894 5893 5893 5893 5892 5890 5889 5888 5887 5886 5885 5884 5883 5882 5881 5880 5879 5878 5876 5875 5874 5874 5873 5872 5871 5870 5869 5868 5868 5867 5866 5865 5865 5864 5863 5863
5879 5880 5880 5881 5881 5883 5885 5887 5887 5888 5889 5889 5889 5890 5890 5889 5888 5887 5886 5885 5884 5883 5882 5881 5879 5878 5877 5876 5875 5874 5872 5871 5870 5869 5868 5868 5867 5865 5864 5864 5862 5861 5860 5860 5859 5858 5858 5857 5857
5872 5874 5876 5877 5878 5880 5881 5883 5884 5884 5884 5885 5885 5885 5885 5885 5884 5883 5881 5881 5880 5879 5877 5876 5875 5874 5873 5872 5870 5869 5868 5866 5865 5864 5863 5862 5861 5859 5858 5857 5856 5855 5854 5853 5853 5852 5852 5851 5851
5867 5869 5872 5874 5875 5876 5878 5879 5880 5880 5881 5881 5881 5881 5880 5880 5879 5878 5877 5876 5875 5874 5873 5872 5871 5870 5869 5867 5866 5865 5863 5862 5860 5858 5857 5856 5855 5853 5852 5851 5850 5848 5847 5846 5845 5845 5845 5844 5844
5864 5867 5869 5871 5872 5873 5875 5876 5877 5877 5877 5877 5877 5876 5875 5875 5874 5873 5872 5871 5871 5870 5869 5868 5866 5865 5864 5863 5861 5860 5858 5856 5855 5853 5851 5850 5848 5846 5845 5844 5842 5841 5840 5839 5838 5838 5838 5837 5837
5863 5865 5867 5868 5870 5871 5874 5875 5874 5874 5874 5873 5873 5872 5871 5870 5869 5868 5868 5867 5866 5865 5864 5863 5862 5861 5859 5858 5856 5854 5852 5851 5849 5847 5845 5843 5841 5839 5837 5836 5834 5833 5832 5831 5830 5830 5830 5830 5830
5862 5863 5864 5867 5868 5869 5871 5871 5871 5870 5870 5869 5868 5867 5866 5865 5864 5863 5863 5863 5862 5861 5860 5858 5857 5856 5854 5852 5850 5849 5846 5844 5842 5840 5838 5835 5833 5831 5830 5828 5826 5825 5824 5823 5822 5822 5822 5822 5822
5861 5862 5863 5865 5866 5866 5867 5867 5867 5866 5865 5864 5863 5862 5862 5861 5860 5860 5859 5859 5858 5857 5855 5854 5852 5850 5849 5847 5845 5843 5840 5838 5835 5833 5831 5828 5826 5824 5821 5820 5818 5817 5815 5814 5814 5813 5813 5813 5813
5862 5862 5862 5863 5863 5864 5863 5863 5862 5861 5859 5858 5857 5856 5856 5857 5857 5857 5856 5855 5854 5853 5851 5850 5848 5846 5843 5841 5839 5836 5834 5831 5829 5826 5823 5821 5818 5816 5814 5812 5810 5808 5807 5806 5805 5805 5804 5804 5805
5862 5861 5861 5862 5861 5861 5860 5859 5857 5856 5854 5853 5852 5852 5852 5853 5853 5854 5853 5852 5851 5849 5848 5846 5843 5841 5839 5836 5833 5830 5828 5825 5822 5819 5816 5814 5811 5809 5806 5804 5802 5800 5798 5797 5796 5795 5795 5795 5796
5862 5861 5861 5860 5860 5859 5858 5856 5853 5851 5850 5849 5849 5849 5850 5851 5851 5851 5851 5849 5848 5846 5845 5842 5840 5837 5834 5831 5828 5825 5822 5818 5815 5812 5809 5806 5804 5801 5798 5796 5794 5792 5790 5788 5787 5786 5786 5786 5786
5862 5861 5860 5860 5859 5857 5856 5854 5851 5849 5849 5848 5848 5849 5849 5850 5850 5850 5848 5847 5846 5844 5842 5839 5836 5833 5830 5826 5823 5820 5816 5813 5809 5805 5802 5799 5796 5793 5791 5788 5786 5784 5782 5780 5779 5778 5777 5777 5777
5863 5861 5860 5860 5858 5857 5856 5854 5853 5850 5849 5849 5849 5849 5849 5849 5849 5848 5847 5845 5843 5841 5838 5836 5832 5829 5826 5822 5818 5814 5810 5806 5802 5799 5795 5791 5788 5785 5783 5780 5778 5776 5773 5772 5770 5769 5768 5768 5768
5862 5861 5860 5859 5859 5858 5856 5855 5853 5851 5851 5850 5850 5850 5849 5849 5848 5846 5845 5843 5841 5838 5835 5832 5828 5825 5820 5816 5812 5808 5804 5800 5796 5792 5788 5784 5780 5777 5774 5772 5769 5767 5765 5763 5761 5760 5759 5758 5758
5861 5861 5860 5859 5858 5858 5857 5856 5855 5853 5852 5851 5850 5849 5849 5848 5846 5845 5843 5841 5838 5835 5832 5828 5824 5819 5815 5810 5806 5802 5797 5793 5789 5785 5781 5777 5773 5769 5766 5763 5760 5757 5755 5753 5751 5749 5748 5748 5748
5861 5860 5860 5859 5858 5857 5856 5855 5855 5853 5852 5851 5850 5849 5848 5846 5845 5843 5841 5838 5835 5831 5827 5823 5818 5814 5809 5805 5800 5796 5791 5787 5783 5778 5774 5770 5766 5761 5757 5753 5750 5747 5744 5742 5740 5738 5737 5736 5737
5860 5859 5859 5858 5857 5856 5856 5855 5854 5852 5851 5850 5849 5848 5846 5845 5843 5840 5837 5834 5831 5827 5822 5818 5813 5809 5804 5800 5795 5790 5786 5781 5776 5772 5767 5763 5758 5753 5749 5744 5740 5736 5733 5730 5728 5726 5725 5724 5724
5860 5859 5858 5857 5856 5855 5855 5854 5853 5851 5850 5849 5847 5846 5844 5842 5840 5837 5833 5830 5826 5822 5817 5813 5808 5804 5799 5794 5790 5785 5780 5775 5770 5765 5760 5755 5750 5745 5740 5735 5730 5726 5722 5719 5716 5714 5713 5712 5712
5860 5859 5857 5856 5855 5854 5853 5854 5851 5849 5848 5847 5845 5844 5841 5839 5836 5832 5829 5825 5820 5816 5812 5807 5803 5799 5794 5789 5784 5779 5774 5769 5764 5758 5753 5747 5742 5736 5730 5725 5720 5715 5711 5707 5704 5702 5700 5700 5699
5858 5857 5856 5855 5853 5852 5851 5853 5848 5847 5845 5844 5842 5840 5837 5834 5831 5827 5823 5819 5815 5811 5807 5803 5798 5794 5789 5784 5779 5773 5768 5762 5757 5751 5745 5739 5733 5726 5721 5715 5709 5704 5700 5696 5693 5690 5688 5688 5687